Regional Weather Roundup
Issued by NWS

Home | Current Version | Previous Version | Text Only | Print | Product List | Glossary Off
Versions: 1 2 3 4 5 6 7 8 9 10 11 12 13 14 15 16 17 18 19 20 21 22 23 24 25 26 27 28 29 30 31 32 33 34 35 36 37 38 39 40 41 42 43 44 45 46 47 48 49 50

000
ASUS43 KLMK 252302
RWRKY
KENTUCKY REGIONAL WEATHER ROUNDUP
NATIONAL WEATHER SERVICE LOUISVILLE KY
700 PM EDT SAT APR 25 2015

NOTE "FAIR" INDICATES FEW OR NO CLOUDS BELOW 12,000 FEET
WITH NO SIGNIFICANT WEATHER AND/OR OBSTRUCTIONS TO VISIBILITY.

KYZ001>023-026-027-061>063-070>075-260000-
WESTERN AND SOUTH CENTRAL KENTUCKY

CITY           SKY/WX    TMP DP  RH WIND       PRES   REMARKS
PADUCAH        MOSUNNY   77  59  53 SW17G24   29.45R
HENDERSON      CLOUDY    63  57  82 N15       29.47R THUNDER
OWENSBORO      TSTM      65  62  90 NE16G25   29.43F
HOPKINSVILLE   SUNNY     79  56  46 SW23G29   29.46S HAZE
BOWLING GREEN  PTSUNNY   80  54  40 SW13      29.45F
GLASGOW        NOT AVBL
$$

KYZ024-025-028>034-038-045-046-053-260000-
NORTH CENTRAL KENTUCKY

CITY           SKY/WX    TMP DP  RH WIND       PRES   REMARKS
LOUISVILLE/SDF LGT RAIN  54  50  86 NE15      29.54S
LOUISVILLE/LOU LGT RAIN  53  49  86 NE8       29.55S
FORT KNOX      TSTM      55  54  94 N10       29.52R
$$

KYZ035>037-039>044-047>052-055>060-089>105-260000-
NORTHEAST KENTUCKY

CITY           SKY/WX    TMP DP  RH WIND       PRES   REMARKS
LEXINGTON      CLOUDY    51  49  92 NE17      29.56F
COVINGTON      CLOUDY    45  45 100 E12       29.63S
FRANKFORT      CLOUDY    51  47  86 NE10G20   29.56S
$$

KYZ054-064>069-076>088-106>120-260000-
SOUTHEAST KENTUCKY

CITY           SKY/WX    TMP DP  RH WIND       PRES   REMARKS
JACKSON        PTSUNNY   57  52  83 CALM      29.56R
LONDON         MOSUNNY   80  51  36 W13       29.51S
SOMERSET       NOT AVBL
MIDDLESBORO    MOSUNNY   72  62  70 S7        29.54F
MONTICELLO     CLEAR     79  56  45 SW13G24   29.52F
$$



USA.gov is the U.S. government's official web portal to all federal, state and local government web resources and services.